Epoch = 1990 Sept.26.0 TT T = 1990 Sept.18.5921 TT Peri. = 310.6225 e = 0.771949 Node = 52.0443 2000.0 q = 1.524077 AU Incl. = 24.3335 a = 6.683058 AU n = 0.0570481 P = 17.28 years
m1 = 9.0 + 5 logΔ + 25 log r(t - 50)